Weather History for Monte Cimone, Italy

Change the Weather History Date:

Sunday, September 8, 2013

  Actual Average Record
Temperature  
Mean Temperature 53 °F -  
Max Temperature 55 °F 48 °F 60 °F (2006)
Min Temperature 51 °F 39 °F 35 °F (2000)
Degree Days  
Heating Degree Days 12    
Growing Degree Days 3 (Base 50)    
Moisture  
Dew Point 47 °F    
Average Humidity 79    
Maximum Humidity 100    
Minimum Humidity 54    
Precipitation  
Precipitation 0.12 in 0.10 in - ()
Sea Level Pressure  
Sea Level Pressure 30.35 in    
Wind  
Wind Speed 33 mph ()    
Max Wind Speed 48 mph    
Max Gust Speed -    
Visibility 4.6 miles    
Events Fog , Rain    
Averages and records for this station are not official NWS values.
T = Trace of Precipitation, MM = Missing Value Source: Averaged Metar Reports

Daily Weather History Graph

Daily Weather History Graph

Search for Another Location

Airport:

Trip Planner

Search our weather history database for the weather conditions in past years. The results will help you decide how hot, cold, wet, or windy it might be!

Date:

Astronomy

Sep. 08, 2013 Rise Set
Actual Time 6:48 AM CEST 7:40 PM CEST
Civil Twilight 6:18 AM CEST 8:09 PM CEST
Nautical Twilight 5:43 AM CEST 8:44 PM CEST
Astronomical Twilight 5:07 AM CEST 9:21 PM CEST
Moon 9:56 AM CEST (9/8) 8:56 PM CEST (9/8)
Length of Visible Light 13h 51m
Length of Day
12h 52m
Waxing Crescent, 9% of the Moon is Illuminated
Sep 8
Waxing Crescent
Sep 12
First Quarter
Sep 19
Full
Sep 27
Last Quarter
Oct 5
New

Hourly Weather History & Observations

Time (CEST) Temp. Dew Point Humidity Pressure Visibility Wind Dir Wind Speed Gust Speed Precip Events Conditions
12:55 AM 51.8 °F 44.6 °F 76% 30.33 in 6.2 mi WSW 44.9 mph - N/A   Scattered Clouds
1:55 AM 51.8 °F 44.6 °F 76% 30.33 in 6.2 mi WSW 48.3 mph - N/A   Scattered Clouds
2:00 AM 52 °F 45 °F 69%  in 19 mi WSW 48.3 mph - -   Partly Cloudy
2:55 AM 53.6 °F 44.6 °F 72% 30.33 in 6.2 mi WSW 43.7 mph - N/A   Scattered Clouds
3:55 AM 51.8 °F 46.4 °F 82% 30.33 in 6.2 mi WSW 47.2 mph - N/A   Scattered Clouds
4:55 AM 51.8 °F 44.6 °F 76% 30.33 in 6.2 mi WSW 40.3 mph - N/A   Scattered Clouds
5:55 AM 53.6 °F 46.4 °F 77% 30.36 in 6.2 mi WSW 29.9 mph - N/A   Scattered Clouds
6:55 AM 53.6 °F 41.0 °F 62% 30.36 in 6.2 mi WSW 34.5 mph - N/A   Mostly Cloudy
7:55 AM 53.6 °F 46.4 °F 77% 30.36 in 6.2 mi WSW 39.1 mph - N/A   Mostly Cloudy
8:00 AM 53 °F 46 °F 71%  in 25 mi WSW 39.1 mph - -   Mostly Cloudy
8:55 AM 53.6 °F 37.4 °F 54% 30.36 in 6.2 mi WSW 29.9 mph - N/A   Scattered Clouds
9:55 AM 53.6 °F 42.8 °F 67% 30.39 in 6.2 mi WSW 31.1 mph - N/A   Scattered Clouds
10:55 AM 53.6 °F 39.2 °F 58% 30.42 in 6.2 mi WSW 32.2 mph - N/A   Scattered Clouds
11:55 AM 55.4 °F 44.6 °F 67% 30.39 in 6.2 mi WSW 23.0 mph - N/A   Mostly Cloudy
12:55 PM 55.4 °F 46.4 °F 72% 30.39 in 6.2 mi WSW 29.9 mph - N/A   Scattered Clouds
1:55 PM 55.4 °F 46.4 °F 72% 30.39 in 6.2 mi WSW 24.2 mph - N/A   Mostly Cloudy
2:00 PM 55 °F 46 °F 63%  in 19 mi WSW 24.2 mph - -   Mostly Cloudy
2:55 PM 53.6 °F 51.8 °F 94% 30.39 in 0.0 mi WSW 20.7 mph - N/A Fog Fog
3:55 PM 53.6 °F 51.8 °F 94% 30.36 in 0.0 mi WSW 25.3 mph - N/A Fog , Rain Light Rain
4:55 PM 51.8 °F 51.8 °F 100% 30.36 in 0.0 mi WSW 28.8 mph - N/A Fog , Rain Light Rain
5:55 PM 51.8 °F 51.8 °F 100% 30.36 in 0.0 mi WSW 24.2 mph - N/A Fog , Rain Light Rain
6:55 PM 51.8 °F 51.8 °F 100% 30.36 in 0.0 mi WSW 25.3 mph - N/A Fog Fog
7:55 PM 51.8 °F 48.2 °F 88% 30.33 in 0.0 mi WSW 26.5 mph - N/A Fog Fog
8:00 PM 51 °F 48 °F 87%  in 0 mi WSW 26.5 mph - - Fog Heavy Fog
8:55 PM 51.8 °F 48.2 °F 88% 30.33 in 0.1 mi WSW 33.4 mph - N/A Fog Fog
9:55 PM 51.8 °F 50.0 °F 94% 30.33 in 0.0 mi WSW 39.1 mph - N/A Fog Fog
10:55 PM 51.8 °F 50.0 °F 94% 30.30 in 0.0 mi WSW 34.5 mph - N/A Fog Fog
11:55 PM 51.8 °F 50.0 °F 94% 30.30 in 0.0 mi WSW 34.5 mph - N/A Fog Fog